| time (UTC) | temp F | wind direction | speed MPH | gust MPH | rain 1hr in | rain 24hr in | rain mn in | humidity % | barometer mb |
| 20260507151607 | 55 | 142 | 2.0 | 5.0 | 0.00 | 0.00 | 0.00 | 49 | 1011.5 |
| 20260507150105 | 52 | 348 | 2.0 | 4.0 | 0.00 | 0.00 | 0.00 | 52 | 1011.6 |
| 20260507144557 | 51 | 348 | 1.0 | 5.0 | 0.00 | 0.00 | 0.00 | 52 | 1011.5 |
| 20260507143103 | 50 | 0 | 0.0 | 3.0 | 0.00 | 0.00 | 0.00 | 54 | 1011.7 |
| 20260507141558 | 48 | 0 | 0.0 | 3.0 | 0.00 | 0.00 | 0.00 | 55 | 1011.7 |
| 20260507140054 | 48 | 348 | 1.0 | 4.0 | 0.00 | 0.00 | 0.00 | 55 | 1011.4 |
| 20260507134557 | 48 | 348 | 2.0 | 6.0 | 0.00 | 0.00 | 0.00 | 55 | 1011.2 |
| 20260507133059 | 46 | 315 | 2.0 | 8.0 | 0.00 | 0.00 | 0.00 | 57 | 1011.0 |
| 20260507131615 | 43 | 0 | 1.0 | 4.0 | 0.00 | 0.00 | 0.00 | 57 | 1011.1 |
| 20260507130055 | 43 | 294 | 0.0 | 3.0 | 0.00 | 0.00 | 0.00 | 55 | 1011.0 |
| 20260507124555 | 43 | 294 | 0.0 | 5.0 | 0.00 | 0.00 | 0.00 | 55 | 1010.9 |
| 20260507123107 | 42 | 0 | 0.0 | 2.0 | 0.00 | 0.00 | 0.00 | 54 | 1010.7 |
| 20260507121601 | 43 | 360 | 3.0 | 8.0 | 0.00 | 0.00 | 0.00 | 54 | 1010.6 |
| 20260507120055 | 45 | 287 | 4.0 | 9.0 | 0.00 | 0.00 | 0.00 | 51 | 1010.3 |
| 20260507114603 | 44 | 217 | 3.0 | 6.0 | 0.00 | 0.00 | 0.00 | 50 | 1010.2 |
| 20260507113103 | 45 | 302 | 3.0 | 9.0 | 0.00 | 0.00 | 0.00 | 48 | 1010.1 |
| 20260507111555 | 44 | 292 | 5.0 | 9.0 | 0.00 | 0.00 | 0.00 | 49 | 1010.0 |
| 20260507110107 | 44 | 266 | 2.0 | 6.0 | 0.00 | 0.00 | 0.00 | 49 | 1009.8 |
| 20260507104554 | 45 | 223 | 2.0 | 4.0 | 0.00 | 0.00 | 0.00 | 50 | 1009.7 |
| 20260507103056 | 44 | 170 | 1.0 | 5.0 | 0.00 | 0.00 | 0.00 | 49 | 1009.6 |
| 20260507101558 | 45 | 9 | 3.0 | 6.0 | 0.00 | 0.00 | 0.00 | 50 | 1010.1 |
| 20260507100055 | 44 | 336 | 4.0 | 11.0 | 0.00 | 0.00 | 0.00 | 50 | 1009.5 |
| 20260507094608 | 44 | 11 | 3.0 | 9.0 | 0.00 | 0.00 | 0.00 | 50 | 1009.2 |
| 20260507093057 | 44 | 16 | 5.0 | 10.0 | 0.00 | 0.00 | 0.00 | 50 | 1009.1 |
| 20260507091618 | 44 | 316 | 3.0 | 10.0 | 0.00 | 0.00 | 0.00 | 53 | 1009.1 |
| 20260507090106 | 44 | 32 | 4.0 | 8.0 | 0.00 | 0.00 | 0.00 | 54 | 1009.1 |
| 20260507084555 | 44 | 346 | 2.0 | 5.0 | 0.00 | 0.00 | 0.00 | 53 | 1008.8 |
| 20260507083053 | 44 | 321 | 2.0 | 8.0 | 0.00 | 0.00 | 0.00 | 53 | 1008.6 |
| 20260507081555 | 44 | 338 | 2.0 | 6.0 | 0.00 | 0.00 | 0.00 | 52 | 1008.5 |
| 20260507074554 | 46 | 328 | 5.0 | 9.0 | 0.00 | 0.00 | 0.00 | 49 | 1008.6 |
| 20260507073053 | 48 | 301 | 3.0 | 8.0 | 0.00 | 0.00 | 0.00 | 47 | 1008.5 |
| 20260507071557 | 49 | 296 | 1.0 | 6.0 | 0.00 | 0.00 | 0.00 | 45 | 1008.3 |
| 20260507070101 | 51 | 50 | 4.0 | 12.0 | 0.00 | 0.00 | 0.00 | 42 | 1008.2 |
| 20260507064553 | 52 | 63 | 7.0 | 14.0 | 0.00 | 0.00 | 0.00 | 41 | 1008.0 |
| 20260507063054 | 53 | 77 | 9.0 | 16.0 | 0.00 | 0.00 | 0.00 | 39 | 1007.8 |
| 20260507061554 | 54 | 85 | 10.0 | 16.0 | 0.00 | 0.00 | 0.00 | 36 | 1007.7 |
| 20260507060104 | 55 | 78 | 19.0 | 27.0 | 0.00 | 0.00 | 0.00 | 33 | 1007.5 |
| 20260507054557 | 57 | 15 | 9.0 | 16.0 | 0.00 | 0.00 | 0.00 | 31 | 1007.5 |
| 20260507053054 | 58 | 68 | 9.0 | 20.0 | 0.00 | 0.00 | 0.00 | 29 | 1007.1 |
| 20260507051553 | 59 | 40 | 7.0 | 14.0 | 0.00 | 0.00 | 0.00 | 29 | 1006.9 |
| 20260507050054 | 59 | 88 | 7.0 | 12.0 | 0.00 | 0.00 | 0.00 | 28 | 1006.7 |
| 20260507044555 | 60 | 84 | 6.0 | 10.0 | 0.00 | 0.00 | 0.00 | 33 | 1006.7 |
| 20260507043059 | 61 | 202 | 2.0 | 5.0 | 0.00 | 0.00 | 0.00 | 35 | 1006.6 |
| 20260507041553 | 62 | 0 | 2.0 | 4.0 | 0.00 | 0.00 | 0.00 | 36 | 1006.5 |
| 20260507040052 | 63 | 202 | 1.0 | 3.0 | 0.00 | 0.00 | 0.00 | 35 | 1006.7 |
| 20260507034559 | 64 | 0 | 0.0 | 6.0 | 0.00 | 0.00 | 0.00 | 34 | 1006.7 |
| 20260507033052 | 64 | 206 | 4.0 | 15.0 | 0.00 | 0.00 | 0.00 | 33 | 1006.8 |
| 20260507031616 | 65 | 215 | 17.0 | 33.0 | 0.00 | 0.00 | 0.00 | 33 | 1007.0 |
| 20260507030059 | 63 | 240 | 7.0 | 13.0 | 0.00 | 0.00 | 0.00 | 25 | 1007.1 |
| 20260507024611 | 65 | 30 | 2.0 | 4.0 | 0.00 | 0.00 | 0.00 | 23 | 1006.5 |
| 20260507023057 | 67 | 30 | 1.0 | 4.0 | 0.00 | 0.00 | 0.00 | 23 | 1006.1 |
| 20260507021600 | 68 | 30 | 2.0 | 5.0 | 0.00 | 0.00 | 0.00 | 22 | 1006.2 |
| 20260507020057 | 69 | 342 | 2.0 | 8.0 | 0.00 | 0.00 | 0.00 | 21 | 1006.1 |
| 20260507014600 | 69 | 49 | 4.0 | 9.0 | 0.00 | 0.00 | 0.00 | 21 | 1006.0 |
| 20260507013057 | 69 | 44 | 3.0 | 7.0 | 0.00 | 0.00 | 0.00 | 21 | 1006.2 |
| 20260507011558 | 70 | 20 | 4.0 | 9.0 | 0.00 | 0.00 | 0.00 | 21 | 1006.4 |
| 20260507010114 | 71 | 343 | 8.0 | 17.0 | 0.00 | 0.00 | 0.00 | 20 | 1006.5 |
| 20260507004557 | 71 | 339 | 11.0 | 16.0 | 0.00 | 0.00 | 0.00 | 20 | 1006.6 |
| 20260507003058 | 72 | 344 | 9.0 | 18.0 | 0.00 | 0.00 | 0.00 | 20 | 1006.4 |
| 20260507001558 | 72 | 336 | 13.0 | 22.0 | 0.00 | 0.00 | 0.00 | 20 | 1006.5 |
| 20260507000059 | 72 | 284 | 10.0 | 19.0 | 0.00 | 0.00 | 0.00 | 19 | 1006.7 |
| 20260506234602 | 70 | 0 | 1.0 | 8.0 | 0.00 | 0.00 | 0.00 | 21 | 1006.7 |
| 20260506233100 | 71 | 201 | 2.0 | 7.0 | 0.00 | 0.00 | 0.00 | 20 | 1006.7 |
| 20260506231551 | 70 | 0 | 1.0 | 4.0 | 0.00 | 0.00 | 0.00 | 20 | 1006.9 |
| 20260506230054 | 70 | 311 | 3.0 | 10.0 | 0.00 | 0.00 | 0.00 | 21 | 1007.2 |
| 20260506224554 | 71 | 0 | 0.0 | 5.0 | 0.00 | 0.00 | 0.00 | 20 | 1007.3 |
| 20260506223100 | 69 | 253 | 4.0 | 10.0 | 0.00 | 0.00 | 0.00 | 21 | 1007.7 |
| 20260506221553 | 68 | 286 | 6.0 | 16.0 | 0.00 | 0.00 | 0.00 | 21 | 1007.9 |
| 20260506220054 | 68 | 217 | 7.0 | 15.0 | 0.00 | 0.00 | 0.00 | 21 | 1008.0 |
| 20260506214556 | 67 | 275 | 4.0 | 17.0 | 0.00 | 0.00 | 0.00 | 21 | 1008.2 |
| 20260506213055 | 66 | 263 | 5.0 | 15.0 | 0.00 | 0.00 | 0.00 | 21 | 1008.6 |
| 20260506211554 | 66 | 284 | 10.0 | 21.0 | 0.00 | 0.00 | 0.00 | 21 | 1008.8 |
| 20260506210056 | 65 | 251 | 11.0 | 19.0 | 0.00 | 0.00 | 0.00 | 21 | 1009.1 |
| 20260506204608 | 65 | 263 | 4.0 | 14.0 | 0.00 | 0.00 | 0.00 | 22 | 1009.2 |
| 20260506203055 | 64 | 299 | 6.0 | 16.0 | 0.00 | 0.00 | 0.00 | 22 | 1009.5 |
| 20260506201600 | 63 | 0 | 5.0 | 15.0 | 0.00 | 0.00 | 0.00 | 23 | 1009.7 |
| 20260506200057 | 62 | 260 | 4.0 | 19.0 | 0.00 | 0.00 | 0.00 | 23 | 1009.9 |
| 20260506194600 | 61 | 213 | 5.0 | 19.0 | 0.00 | 0.00 | 0.00 | 24 | 1010.2 |
| 20260506193104 | 60 | 221 | 4.0 | 13.0 | 0.00 | 0.00 | 0.00 | 24 | 1010.5 |
| 20260506191610 | 59 | 192 | 6.0 | 15.0 | 0.00 | 0.00 | 0.00 | 24 | 1010.9 |
| 20260506190110 | 59 | 192 | 5.0 | 12.0 | 0.00 | 0.00 | 0.00 | 24 | 1011.1 |
| 20260506184609 | 58 | 213 | 4.0 | 14.0 | 0.00 | 0.00 | 0.00 | 23 | 1011.3 |
| 20260506183109 | 56 | 199 | 4.0 | 16.0 | 0.00 | 0.00 | 0.00 | 24 | 1011.7 |
| 20260506181609 | 56 | 192 | 5.0 | 11.0 | 0.00 | 0.00 | 0.00 | 23 | 1011.8 |
| 20260506180054 | 55 | 0 | 9.0 | 15.0 | 0.00 | 0.00 | 0.00 | 22 | 1012.2 |
| 20260506174600 | 54 | 186 | 6.0 | 15.0 | 0.00 | 0.00 | 0.00 | 23 | 1012.4 |
| 20260506173125 | 53 | 227 | 7.0 | 13.0 | 0.00 | 0.00 | 0.00 | 26 | 1012.6 |
| 20260506171600 | 52 | 146 | 6.0 | 13.0 | 0.00 | 0.00 | 0.00 | 31 | 1013.0 |
| 20260506170053 | 51 | 186 | 5.0 | 11.0 | 0.00 | 0.00 | 0.00 | 31 | 1013.3 |
| 20260506164559 | 50 | 184 | 6.0 | 15.0 | 0.00 | 0.00 | 0.00 | 35 | 1013.5 |
| 20260506163100 | 49 | 153 | 6.0 | 15.0 | 0.00 | 0.00 | 0.00 | 38 | 1013.6 |
| 20260506161608 | 48 | 172 | 3.0 | 11.0 | 0.00 | 0.00 | 0.00 | 43 | 1013.7 |
| 20260506160107 | 45 | 204 | 5.0 | 12.0 | 0.00 | 0.00 | 0.00 | 47 | 1014.1 |
| 20260506154600 | 44 | 192 | 6.0 | 10.0 | 0.00 | 0.00 | 0.00 | 50 | 1014.4 |
| 20260506153052 | 42 | 207 | 4.0 | 12.0 | 0.00 | 0.00 | 0.00 | 53 | 1014.7 |